Meath Environmental Platform

Observations for Trim Patrick St

Time AQI Temp °C Hum % Pres Pa CO μg/m³ H₂S μg/m³ NO μg/m³ NO₂ μg/m³ O₃ μg/m³ SO₂ μg/m³ PM1 μg/m³ PM2.5 μg/m³ PM10 μg/m³
Friday 7 August 2026
01:39 2 13.8 71 38,460 0.18 1.92 3.46 13.17 25.94 0 2.86 6.55 7.2
01:38 2 13.9 71 38,460 0.18 2.13 3.46 11.77 27.26 0 2 6.51 7.16
01:37 2 13.9 71 38,460 0.17 2.52 3.43 14.72 30.27 0 2.86 7.27 8
01:35 2 13.9 70 38,460 0.18 2.02 3.44 13.26 25.84 0 2.86 6.61 7.28
01:34 2 14 72 38,460 0.18 2.67 3.4 13.71 28.98 0 3.71 7.93 8.72
01:32 2 14 71 38,460 0.18 2.1 3.36 13.7 26.45 0 4.57 7.94 8.73
01:28 2 14.1 71 38,460 0.18 3.3 3.43 20.84 33.33 0 3.71 7.94 8.74
01:27 2 14.1 71 38,460 0.19 2.44 3.42 10.75 31.15 0 2.86 7.23 7.96
01:26 2 14.2 71 38,460 0.17 2.57 3.39 19.01 35.82 0 2 6.54 7.19
01:25 2 14.2 71 38,460 0.18 2.31 3.36 12.74 30.28 0 3.71 7.96 8.75
01:24 2 14.2 71 38,460 0.18 2.67 3.32 13.68 32.39 0 2.86 6.53 7.18
01:23 2 14.2 71 38,460 0.18 2.39 3.36 14.05 27.95 0 2.86 7.25 7.98
01:22 2 14.3 71 38,460 0.18 3.09 3.36 15.33 31.17 0 2 6.53 7.19
01:21 2 14.3 71 38,460 0.19 3.14 3.38 18.92 32.57 0 4.57 7.99 8.78
01:20 2 14.3 71 38,460 0.18 2.34 3.37 12.62 32.51 0 2.86 7.26 7.99
01:18 2 14.3 71 38,459 0.19 1.71 3.37 13.35 30.03 0 2.86 6.55 7.21
01:17 2 14.4 70 38,459 0.18 1.61 3.35 13.63 29.85 0 3.71 7.29 8.02
01:16 2 14.4 70 38,459 0.18 2.13 3.35 13.02 29.12 0 2.86 7.29 8.02
01:15 2 14.4 70 38,459 0.19 2.6 3.35 11.7 27.88 0 2.86 7.29 8.02
01:14 2 14.5 70 38,459 0.18 3.69 3.32 22.45 45.49 0 3.71 8.03 8.83